Time,TemperatureF,DewpointF,PressureIn,WindDirection,WindDirectionDegrees,WindSpeedMPH,WindSpeedGustMPH,Humidity,HourlyPrecipIn,Conditions,Clouds,dailyrainin,SoftwareType,DateUTC
2013-04-19 00:04:00,78.3,74.0,30.00,SE,126,2.0,8.0,85,0.00,,,0.00,weatherlink.com 1.10,2013-04-19 04:04:00,
2013-04-19 00:20:00,78.2,74.0,30.00,ESE,122,4.0,5.0,86,0.00,,,0.00,weatherlink.com 1.10,2013-04-19 04:20:00,
2013-04-19 00:35:00,78.3,74.0,30.00,SE,128,3.0,6.0,86,0.00,,,0.00,weatherlink.com 1.10,2013-04-19 04:35:00,
2013-04-19 00:50:00,78.4,74.0,30.00,East,101,4.0,7.0,85,0.00,,,0.00,weatherlink.com 1.10,2013-04-19 04:50:00,
2013-04-19 01:05:00,78.6,73.0,29.99,SSE,153,2.0,10.0,82,0.00,,,0.00,weatherlink.com 1.10,2013-04-19 05:05:00,
2013-04-19 01:20:00,78.5,73.0,29.99,East,87,5.0,9.0,84,0.00,,,0.00,weatherlink.com 1.10,2013-04-19 05:20:00,
2013-04-19 01:35:00,78.1,73.0,29.99,South,180,3.0,8.0,84,0.00,,,0.00,weatherlink.com 1.10,2013-04-19 05:35:00,
2013-04-19 01:50:00,77.7,72.0,29.99,SE,136,0.0,6.0,83,0.00,,,0.00,weatherlink.com 1.10,2013-04-19 05:50:00,
2013-04-19 02:06:00,77.5,72.0,29.99,ESE,107,2.0,4.0,83,0.00,,,0.00,weatherlink.com 1.10,2013-04-19 06:06:00,
2013-04-19 02:20:00,77.8,73.0,29.98,ESE,112,1.0,5.0,84,0.00,,,0.00,weatherlink.com 1.10,2013-04-19 06:20:00,
2013-04-19 02:35:00,78.0,73.0,29.97,ESE,107,2.0,5.0,85,0.00,,,0.00,weatherlink.com 1.10,2013-04-19 06:35:00,
2013-04-19 02:50:00,78.1,73.0,29.97,SSE,160,4.0,6.0,85,0.00,,,0.00,weatherlink.com 1.10,2013-04-19 06:50:00,
2013-04-19 03:05:00,78.3,74.0,29.97,ESE,115,0.0,7.0,85,0.00,,,0.00,weatherlink.com 1.10,2013-04-19 07:05:00,
2013-04-19 03:20:00,78.5,73.0,29.97,SSE,159,6.0,9.0,84,0.00,,,0.00,weatherlink.com 1.10,2013-04-19 07:20:00,
2013-04-19 03:35:00,78.6,73.0,29.97,ESE,115,4.0,8.0,83,0.00,,,0.00,weatherlink.com 1.10,2013-04-19 07:35:00,
2013-04-19 03:50:00,78.5,73.0,29.97,SSE,162,5.0,9.0,83,0.00,,,0.00,weatherlink.com 1.10,2013-04-19 07:50:00,
2013-04-19 04:05:00,78.6,73.0,29.97,SE,143,4.0,11.0,82,0.00,,,0.00,weatherlink.com 1.10,2013-04-19 08:05:00,
2013-04-19 04:20:00,78.4,73.0,29.97,ESE,120,5.0,8.0,82,0.00,,,0.00,weatherlink.com 1.10,2013-04-19 08:20:00,
2013-04-19 04:35:00,78.3,73.0,29.97,SSE,156,1.0,9.0,83,0.00,,,0.00,weatherlink.com 1.10,2013-04-19 08:35:00,
2013-04-19 04:50:00,77.9,73.0,29.97,SE,132,0.0,4.0,84,0.00,,,0.00,weatherlink.com 1.10,2013-04-19 08:50:00,
2013-04-19 05:05:00,77.6,73.0,29.97,SSE,160,1.0,9.0,84,0.00,,,0.00,weatherlink.com 1.10,2013-04-19 09:05:00,
2013-04-19 05:20:00,77.7,72.0,29.97,ESE,111,1.0,7.0,83,0.00,,,0.00,weatherlink.com 1.10,2013-04-19 09:20:00,
2013-04-19 05:35:00,77.7,72.0,29.97,SSE,152,5.0,9.0,83,0.00,,,0.00,weatherlink.com 1.10,2013-04-19 09:35:00,
2013-04-19 05:50:00,77.6,72.0,29.98,ESE,122,3.0,9.0,83,0.00,,,0.00,weatherlink.com 1.10,2013-04-19 09:50:00,
2013-04-19 06:05:00,77.4,72.0,29.98,ESE,117,4.0,7.0,84,0.00,,,0.00,weatherlink.com 1.10,2013-04-19 10:05:00,
2013-04-19 06:19:00,77.1,72.0,29.98,SE,124,7.0,7.0,84,0.00,,,0.00,weatherlink.com 1.10,2013-04-19 10:19:00,
2013-04-19 06:34:00,77.3,72.0,29.99,ESE,118,1.0,6.0,83,0.00,,,0.00,weatherlink.com 1.10,2013-04-19 10:34:00,
2013-04-19 06:49:00,77.1,72.0,29.99,South,170,4.0,6.0,84,0.00,,,0.00,weatherlink.com 1.10,2013-04-19 10:49:00,
2013-04-19 07:04:00,77.1,72.0,29.99,East,91,1.0,5.0,85,0.00,,,0.00,weatherlink.com 1.10,2013-04-19 11:04:00,
2013-04-19 07:19:00,77.1,72.0,30.00,ESE,115,4.0,5.0,85,0.00,,,0.00,weatherlink.com 1.10,2013-04-19 11:19:00,
2013-04-19 07:34:00,77.1,72.0,30.00,SE,134,1.0,5.0,85,0.00,,,0.00,weatherlink.com 1.10,2013-04-19 11:34:00,
2013-04-19 07:49:00,77.6,73.0,30.00,SE,132,6.0,7.0,85,0.00,,,0.00,weatherlink.com 1.10,2013-04-19 11:49:00,
2013-04-19 08:04:00,78.9,73.0,30.01,SSW,208,2.0,6.0,82,0.00,,,0.00,weatherlink.com 1.10,2013-04-19 12:04:00,
2013-04-19 08:19:00,80.3,74.0,30.01,South,174,3.0,9.0,80,0.00,,,0.00,weatherlink.com 1.10,2013-04-19 12:19:00,
2013-04-19 08:34:00,80.3,73.0,30.01,SE,126,3.0,12.0,79,0.00,,,0.00,weatherlink.com 1.10,2013-04-19 12:34:00,
2013-04-19 08:49:00,81.0,73.0,30.02,SE,129,1.0,11.0,77,0.00,,,0.00,weatherlink.com 1.10,2013-04-19 12:49:00,
2013-04-19 09:04:00,81.9,74.0,30.01,South,184,4.0,9.0,77,0.00,,,0.00,weatherlink.com 1.10,2013-04-19 13:04:00,
2013-04-19 09:19:00,82.2,74.0,30.02,SE,130,9.0,11.0,75,0.00,,,0.00,weatherlink.com 1.10,2013-04-19 13:19:00,
2013-04-19 09:34:00,82.0,74.0,30.02,South,169,3.0,9.0,76,0.00,,,0.00,weatherlink.com 1.10,2013-04-19 13:34:00,
2013-04-19 09:49:00,81.5,73.0,30.02,East,92,2.0,14.0,75,0.00,,,0.00,weatherlink.com 1.10,2013-04-19 13:49:00,
2013-04-19 10:04:00,83.3,74.0,30.02,South,170,3.0,12.0,73,0.00,,,0.00,weatherlink.com 1.10,2013-04-19 14:04:00,
2013-04-19 10:19:00,83.7,74.0,30.02,SE,126,14.0,14.0,72,0.00,,,0.00,weatherlink.com 1.10,2013-04-19 14:19:00,
2013-04-19 10:34:00,82.8,74.0,30.02,SE,129,3.0,12.0,74,0.00,,,0.00,weatherlink.com 1.10,2013-04-19 14:34:00,
2013-04-19 10:49:00,84.4,73.0,30.02,SSW,207,8.0,16.0,69,0.00,,,0.00,weatherlink.com 1.10,2013-04-19 14:49:00,
2013-04-19 11:04:00,84.6,73.0,30.02,SSE,167,9.0,14.0,69,0.00,,,0.00,weatherlink.com 1.10,2013-04-19 15:04:00,
2013-04-19 11:19:00,84.8,75.0,30.02,SE,143,5.0,13.0,72,0.00,,,0.00,weatherlink.com 1.10,2013-04-19 15:19:00,
2013-04-19 11:34:00,84.8,74.0,30.02,ESE,107,9.0,14.0,70,0.00,,,0.00,weatherlink.com 1.10,2013-04-19 15:34:00,
2013-04-19 11:49:00,84.9,75.0,30.02,East,93,6.0,14.0,71,0.00,,,0.00,weatherlink.com 1.10,2013-04-19 15:49:00,
2013-04-19 12:04:00,85.7,73.0,30.02,South,174,5.0,16.0,66,0.00,,,0.00,weatherlink.com 1.10,2013-04-19 16:04:00,
2013-04-19 12:19:00,86.4,74.0,30.02,SSE,155,3.0,14.0,67,0.00,,,0.00,weatherlink.com 1.10,2013-04-19 16:19:00,
2013-04-19 12:34:00,86.1,73.0,30.02,NE,53,5.0,13.0,65,0.00,,,0.00,weatherlink.com 1.10,2013-04-19 16:34:00,
2013-04-19 12:49:00,86.4,74.0,30.01,SSE,149,5.0,15.0,67,0.00,,,0.00,weatherlink.com 1.10,2013-04-19 16:49:00,
2013-04-19 13:04:00,86.0,74.0,30.00,ESE,114,3.0,15.0,68,0.00,,,0.00,weatherlink.com 1.10,2013-04-19 17:04:00,
2013-04-19 13:19:00,86.7,74.0,30.00,ESE,114,8.0,16.0,65,0.00,,,0.00,weatherlink.com 1.10,2013-04-19 17:19:00,
2013-04-19 13:35:00,86.4,74.0,30.00,ESE,123,3.0,16.0,66,0.00,,,0.00,weatherlink.com 1.10,2013-04-19 17:35:00,
2013-04-19 13:50:00,87.1,74.0,30.00,ESE,106,2.0,14.0,65,0.00,,,0.00,weatherlink.com 1.10,2013-04-19 17:50:00,
2013-04-19 14:05:00,86.1,74.0,30.00,SE,134,5.0,11.0,68,0.00,,,0.00,weatherlink.com 1.10,2013-04-19 18:05:00,
2013-04-19 14:20:00,86.2,74.0,29.99,SW,233,6.0,15.0,68,0.00,,,0.00,weatherlink.com 1.10,2013-04-19 18:20:00,
2013-04-19 14:35:00,86.2,74.0,29.99,SE,126,8.0,14.0,67,0.00,,,0.00,weatherlink.com 1.10,2013-04-19 18:35:00,
2013-04-19 14:50:00,87.2,73.0,29.98,ESE,121,3.0,10.0,63,0.00,,,0.00,weatherlink.com 1.10,2013-04-19 18:50:00,
2013-04-19 15:05:00,87.1,74.0,29.98,SSW,210,10.0,11.0,65,0.00,,,0.00,weatherlink.com 1.10,2013-04-19 19:05:00,
2013-04-19 15:20:00,87.5,72.0,29.98,SE,131,6.0,11.0,60,0.00,,,0.00,weatherlink.com 1.10,2013-04-19 19:20:00,
2013-04-19 15:35:00,87.3,73.0,29.97,SSE,166,4.0,13.0,62,0.00,,,0.00,weatherlink.com 1.10,2013-04-19 19:35:00,
2013-04-19 15:50:00,87.3,73.0,29.96,South,187,10.0,13.0,62,0.00,,,0.00,weatherlink.com 1.10,2013-04-19 19:50:00,
2013-04-19 16:05:00,86.7,72.0,29.96,SE,142,4.0,17.0,62,0.00,,,0.00,weatherlink.com 1.10,2013-04-19 20:05:00,
2013-04-19 16:20:00,85.9,72.0,29.95,SE,141,4.0,15.0,64,0.00,,,0.00,weatherlink.com 1.10,2013-04-19 20:20:00,
2013-04-19 16:35:00,85.8,72.0,29.95,ESE,115,3.0,12.0,64,0.00,,,0.00,weatherlink.com 1.10,2013-04-19 20:35:00,
2013-04-19 16:50:00,86.2,72.0,29.94,South,174,3.0,11.0,62,0.00,,,0.00,weatherlink.com 1.10,2013-04-19 20:50:00,
2013-04-19 17:05:00,84.7,71.0,29.95,South,177,3.0,15.0,63,0.00,,,0.00,weatherlink.com 1.10,2013-04-19 21:05:00,
2013-04-19 17:20:00,84.1,72.0,29.95,SE,132,11.0,12.0,66,0.00,,,0.00,weatherlink.com 1.10,2013-04-19 21:20:00,
2013-04-19 17:35:00,84.2,72.0,29.95,South,181,4.0,13.0,67,0.00,,,0.00,weatherlink.com 1.10,2013-04-19 21:35:00,
2013-04-19 17:50:00,85.4,72.0,29.95,ESE,107,5.0,15.0,64,0.00,,,0.00,weatherlink.com 1.10,2013-04-19 21:50:00,
2013-04-19 18:05:00,85.2,71.0,29.95,South,178,3.0,16.0,63,0.00,,,0.00,weatherlink.com 1.10,2013-04-19 22:05:00,
2013-04-19 18:20:00,84.4,71.0,29.95,SSE,149,6.0,13.0,65,0.00,,,0.00,weatherlink.com 1.10,2013-04-19 22:20:00,
2013-04-19 18:35:00,83.4,72.0,29.95,SSW,197,2.0,10.0,68,0.00,,,0.00,weatherlink.com 1.10,2013-04-19 22:35:00,
2013-04-19 18:50:00,82.7,72.0,29.95,SSE,160,5.0,8.0,71,0.00,,,0.00,weatherlink.com 1.10,2013-04-19 22:50:00,
2013-04-19 19:05:00,82.7,73.0,29.95,South,181,3.0,11.0,72,0.00,,,0.00,weatherlink.com 1.10,2013-04-19 23:05:00,
2013-04-19 19:20:00,81.9,73.0,29.95,ESE,105,2.0,9.0,75,0.00,,,0.00,weatherlink.com 1.10,2013-04-19 23:20:00,
2013-04-19 19:35:00,81.4,74.0,29.95,SW,222,4.0,11.0,77,0.00,,,0.00,weatherlink.com 1.10,2013-04-19 23:35:00,
2013-04-19 19:50:00,80.9,73.0,29.95,East,81,1.0,11.0,78,0.00,,,0.00,weatherlink.com 1.10,2013-04-19 23:50:00,
2013-04-19 20:05:00,80.8,74.0,29.98,South,173,2.0,7.0,79,0.00,,,0.00,weatherlink.com 1.10,2013-04-20 00:05:00,
2013-04-19 20:20:00,80.7,74.0,29.98,SE,130,1.0,7.0,80,0.00,,,0.00,weatherlink.com 1.10,2013-04-20 00:20:00,
2013-04-19 20:35:00,80.7,74.0,29.99,ESE,121,1.0,6.0,79,0.00,,,0.00,weatherlink.com 1.10,2013-04-20 00:35:00,
2013-04-19 20:50:00,81.1,74.0,29.99,ESE,117,1.0,4.0,79,0.00,,,0.00,weatherlink.com 1.10,2013-04-20 00:50:00,
2013-04-19 21:05:00,80.8,75.0,30.00,SE,146,0.0,4.0,81,0.00,,,0.00,weatherlink.com 1.10,2013-04-20 01:05:00,
2013-04-19 21:21:00,80.2,74.0,30.00,ESE,105,0.0,3.0,82,0.00,,,0.00,weatherlink.com 1.10,2013-04-20 01:21:00,
2013-04-19 21:36:00,79.9,74.0,30.01,SE,144,0.0,2.0,82,0.00,,,0.00,weatherlink.com 1.10,2013-04-20 01:36:00,
2013-04-19 21:51:00,79.8,74.0,30.02,SW,217,1.0,2.0,83,0.00,,,0.00,weatherlink.com 1.10,2013-04-20 01:51:00,
2013-04-19 22:06:00,79.5,74.0,30.02,South,172,0.0,3.0,84,0.00,,,0.00,weatherlink.com 1.10,2013-04-20 02:06:00,
2013-04-19 22:21:00,79.5,74.0,30.02,SSE,150,1.0,4.0,84,0.00,,,0.00,weatherlink.com 1.10,2013-04-20 02:21:00,
2013-04-19 22:36:00,79.5,74.0,30.02,SSE,163,0.0,4.0,84,0.00,,,0.00,weatherlink.com 1.10,2013-04-20 02:36:00,
2013-04-19 22:51:00,79.3,75.0,30.02,East,94,0.0,2.0,85,0.00,,,0.00,weatherlink.com 1.10,2013-04-20 02:51:00,
2013-04-19 23:06:00,79.2,74.0,30.02,SE,124,0.0,2.0,85,0.00,,,0.00,weatherlink.com 1.10,2013-04-20 03:06:00,
2013-04-19 23:21:00,79.3,75.0,30.02,ESE,121,0.0,4.0,85,0.00,,,0.00,weatherlink.com 1.10,2013-04-20 03:21:00,
2013-04-19 23:36:00,79.7,75.0,30.02,SE,140,0.0,4.0,84,0.00,,,0.00,weatherlink.com 1.10,2013-04-20 03:36:00,
2013-04-19 23:51:00,79.7,75.0,30.02,SE,124,0.0,4.0,84,0.00,,,0.00,weatherlink.com 1.10,2013-04-20 03:51:00,